Regional Weather Roundup
Issued by NWS

Home | Current Version | Previous Version | Graphics & Text | Print | Product List | Glossary Off
Versions: 1 2 3 4 5 6 7 8 9 10 11 12 13 14 15 16 17 18 19 20 21 22 23 24 25 26 27 28 29 30 31 32 33 34 35 36 37 38 39 40 41 42 43 44 45 46 47 48 49 50

000
ASUS43 KMPX 160510
RWRMN
WEATHER ROUNDUP FOR MINNESOTA
NATIONAL WEATHER SERVICE TWIN CITIES/CHANHASSEN MN
1100 PM CST FRI DEC 15 2017


NOTE: "FAIR" INDICATES FEW OR NO CLOUDS BELOW 12,000 FEET WITH NO
SIGNIFICANT WEATHER AND/OR OBSTRUCTIONS TO VISIBILITY. N/A MEANS
CURRENT SKY AND/OR WEATHER CONDITIONS ARE NOT AVAILABLE.

MNZ060>063-068>070-160600-
   Twin Cities Metro

CITY           SKY/WX    TMP DP  RH WIND       PRES   REMARKS
TWIN CITIES    CLOUDY    29  28  96 SE8       29.68F FOG     WCI  21
ST PAUL        CLOUDY    28  27  96 SE7       29.70F WCI  21
CRYSTAL        CLOUDY    28  24  85 SE6       29.67F WCI  22
BLAINE         MIX PCPN  28  28 100 E5        29.67F WCI  23
LAKEVILLE        N/A     27  27 100 SE5       29.67F WCI  21
EDEN PRAIRIE   CLOUDY    30  27  88 E8        29.65F WCI  22
SOUTH ST PAUL  CLOUDY    29  28  98 SE3       29.69F
LAKE ELMO      LGT SNOW  28  27  93 NE5       29.70F WCI  23
$$
MNZ001>005-007-008-013>017-022>024-027-028-160600-
   Northwest Minnesota

CITY           SKY/WX    TMP DP  RH WIND       PRES   REMARKS
BEMIDJI        LGT SNOW  15  13  90 E8        29.65F WCI   5
HALLOCK        LGT SNOW  18  14  86 E16       29.65S WCI   3
ROSEAU         LGT SNOW  12   7  79 E14       29.70F WCI  -3
WARROAD        LGT SNOW   9   5  85 E12       29.73S WCI  -6
THIEF RVR FALL LGT SNOW  16  13  88 E15       29.65S FOG     WCI   1
CROOKSTON      LGT SNOW  19  18  93 E12       29.63F WCI   7
FOSSTON        LGT SNOW  18  14  86 E7        29.64R WCI   8
DETROIT LAKES  LGT SNOW  25  23  93 E6        29.61R WCI  18
MOORHEAD       CLOUDY    28  25  86 CALM      29.59S
PARK RAPIDS    LGT SNOW  19  15  84 E9        29.62F FOG     WCI   8
MAHNOMEN       LGT SNOW  21  18  90 E10       29.60S WCI  10
$$
MNZ006-009>011-018-025>026-160600-
   North Central Minnesota

CITY           SKY/WX    TMP DP  RH WIND       PRES   REMARKS
BAUDETTE       CLOUDY     7   3  84 E13       29.74R WCI  -9
FLAG ISLAND    CLOUDY     3  -2  78 E10       29.75F WCI -12
INTL FALLS     CLOUDY     4  -1  80 E6        29.76S WCI  -7
WASKISH        LGT SNOW  12  10  92 E7        29.70F WCI   2
BIG FORK       LGT SNOW  12   9  85 E3        29.70F
LONGVILLE      LGT SNOW  18  16  93 CALM      29.68S
GRAND RAPIDS   LGT SNOW  14  10  85 E5        29.71F FOG     WCI   6
CRANE LAKE     CLOUDY    -4  -6  92 CALM      29.80S
ORR            CLOUDY     7   0  72 E3        29.71S
COOK           CLOUDY     7   3  85 E5        29.74S WCI  -2
WALKER         LGT SNOW  17  14  90 E5        29.66F WCI   9
$$
MNZ012-019>021-037-160600-
   Northeast Minnesota

CITY           SKY/WX    TMP DP  RH WIND       PRES   REMARKS
DULUTH         LGT SNOW  14  10  84 E6        29.72S FOG     WCI   5
ELY            CLOUDY    -2  -8  78 CALM      29.75S
HIBBING        CLOUDY    11   5  77 E5        29.72S WCI   3
EVELETH        CLOUDY    12   5  73 NE3       29.74S
DULUTH HARBOR  CLOUDY    19  12  73 SE6       29.79S WCI  11
TWO HARBORS    CLOUDY    16   7  67 CALM      29.74S
SILVER BAY     CLOUDY    10   5  79 N3        29.75F
GRAND MARAIS     N/A      6  -3  66 N6        29.86R WCI  -4
G MARAIS ARPRT CLOUDY    -6 -11  77 N5        29.73S WCI -17
$$
MNZ029>031-032-039>041-046>048-054>057-064-160600-
   West Central Minnesota

CITY           SKY/WX    TMP DP  RH WIND       PRES   REMARKS
FERGUS FALLS   CLOUDY    28  27  93 SE9       29.61S WCI  20
WHEATON        CLOUDY    28  27  93 SE9       29.58F WCI  20
MORRIS         CLOUDY    28  28 100 SE9       29.58R WCI  20
ALEXANDRIA     CLOUDY    27  26  96 SE10      29.60F WCI  17
ELBOW LAKE     CLOUDY    29  28  94 SE8       29.59R FOG     WCI  21
WADENA         LGT SNOW  21  19  93 E7        29.61S WCI  13
GLENWOOD       CLOUDY    27  27 100 E10       29.61R WCI  17
APPLETON       CLOUDY    34  28  80 SE6       29.58R WCI  29
BENSON         CLOUDY    30  28  93 SE7       29.61R WCI  23
ORTONVILLE     CLOUDY    32  28  86 SE5       29.56F WCI  27
MADISON        CLOUDY    36  30  80 SE3       29.57F
WILLMAR        FAIR      30  28  93 SE7       29.61F WCI  23
$$
MNZ033>034-036-042>043-049>051-058-059-160600-
   Central Minnesota

CITY           SKY/WX    TMP DP  RH WIND       PRES   REMARKS
ST CLOUD       CLOUDY    23  21  92 E7        29.65F WCI  15
SAUK CENTRE    MOCLDY    26  24  93 E7        29.62F WCI  18
PAYNESVILLE    CLOUDY    28  27  99 E6        29.62F WCI  21
PINE RIVER     LGT SNOW  18  16  93 E8        29.70F WCI   7
BRAINERD       LGT SNOW  20  16  84 E6        29.67S FOG     WCI  12
STAPLES        LGT SNOW  19  18  93 E6        29.63F WCI  11
LITTLE FALLS   LGT SNOW  23  18  80 E5        29.65F WCI  17
LITCHFIELD     CLOUDY    28  28 100 SE6       29.63S WCI  22
BUFFALO        CLOUDY    28  27  93 E5        29.66F WCI  23
MAPLE LAKE     CLOUDY    28  28  96 E6        29.66S WCI  22
HUTCHINSON     CLOUDY    31  29  94 SE6       29.63F WCI  25
$$
MNZ037-044-045-052-053-160600-
   East Central Minnesota

CITY           SKY/WX    TMP DP  RH WIND       PRES   REMARKS
PRINCETON      LGT SNOW  23  21  93 NE3       29.68S
MORA           LGT SNOW  19  18  93 E5        29.72S WCI  13
CAMBRIDGE      LGT SNOW  25  19  80 CALM      29.70F
RUSH CITY      LGT SNOW  20  18  92 NE5       29.71F WCI  14
MOOSE LAKE     LGT SNOW  19  14  79 CALM      29.71F
HINCKLEY       LGT SNOW  19  18  93 E5        29.73S WCI  13
CLOQUET        LGT SNOW  14  10  85 E3        29.73R
MCGREGOR       CLOUDY    19  18  93 E5        29.71F WCI  13
$$
MNZ071>073-080-081-089-090-097-098-160600-
   Southwest Minnesota

CITY           SKY/WX    TMP DP  RH WIND       PRES   REMARKS
MONTEVIDEO     CLOUDY    34  28  80 S3        29.59F
GRANITE FALLS  CLOUDY    34  30  85 SE8       29.60F WCI  27
CANBY          CLOUDY    38  29  70 W9        29.58F
MARSHALL       CLOUDY    38  28  67 SW13      29.58F
REDWOOD FALLS  CLOUDY    34  30  85 SE6       29.61F WCI  29
OLIVIA         CLOUDY    32  30  93 SE8       29.60F WCI  25
PIPESTONE      CLOUDY    34  27  75 SW7       29.60S WCI  28
WINDOM           N/A     37  21  52 S6        29.63S
WORTHINGTON    CLOUDY    37  27  67 SW13      29.63F
JACKSON        CLOUDY    36  27  69 SW8       29.64F
TRACY          CLOUDY    37  30  75 SW13      29.59F
SLAYTON        CLOUDY    35  28  77 SW8       29.62F WCI  28
$$
MNZ065>067-074>077-082>085-091>093-160600-
   South Central Minnesota

CITY           SKY/WX    TMP DP  RH WIND       PRES   REMARKS
MANKATO        CLOUDY    32  28  85 SE7       29.65  WCI  26
NEW ULM        CLOUDY    34  27  75 S8        29.63S WCI  27
ST JAMES       CLOUDY    36  27  69 S8        29.65S
FAIRMONT       CLOUDY    35  26  69 S8        29.65F WCI  29
GLENCOE        CLOUDY    31  31 100 E9        29.63F WCI  23
FARIBAULT      PTCLDY    30  28  93 SE7       29.66F WCI  23
OWATONNA       CLOUDY    32  28  86 SE8       29.67F WCI  25
WASECA         CLOUDY    32  28  86 SE8       29.66F WCI  25
ALBERT LEA     CLOUDY    34  25  69 S5        29.68F WCI  30
$$
MNZ078>079-086>088-094>096-160600-
   Southeast Minnesota

CITY           SKY/WX    TMP DP  RH WIND       PRES   REMARKS
ROCHESTER      CLOUDY    28  26  92 SE10      29.68F WCI  19
RED WING       CLOUDY    30  27  86 SE7       29.70F WCI  23
STANTON        CLOUDY    32  28  86 SE3       29.66F
DODGE CENTER   CLOUDY    28  27  93 SE6       29.68F WCI  22
WINONA         CLOUDY    30  30 100 S5        29.75F WCI  25
AUSTIN         CLOUDY    34  27  75 S6        29.69F WCI  29
PRESTON        CLOUDY    29  26  87 S6        29.71F WCI  23
$$
ABBREVIATIONS USED IN REMARKS
   TC - TEMPERATURES IN CELSIUS
  WCI - WIND CHILL INDEX
   HX - HEAT INDEX
  VSB - VISIBILITY
$$




USA.gov is the U.S. government's official web portal to all federal, state and local government web resources and services.